Regional Weather Roundup
Issued by NWS Green Bay, WI

Home | Current Version | Previous Version | Text Only | Print | Product List | Glossary On
Versions: 1 2 3 4 5 6 7 8 9 10 11 12 13 14 15 16 17 18 19 20 21 22 23 24 25 26 27 28 29 30 31 32 33 34 35 36 37 38 39 40 41 42 43 44 45 46 47 48 49 50
000
ASUS43 KGRB 171310
RWRGRB

NORTH-CENTRAL AND NORTHEAST WISCONSIN REGIONAL WEATHER ROUNDUP
NATIONAL WEATHER SERVICE GREEN BAY WI
800 AM CDT THU APR 17 2014

WIZ005-009-010>012-018-019-171400-
NORTH CENTRAL WISCONSIN

CITY           SKY/WX    TMP DP  RH WIND       PRES   REMARKS
IRONWOOD       CLOUDY    30  27  86 NE3       30.05S
MANITOWISH WTR LGT SNOW  31  30  98 CALM      30.05R
ARBOR VITAE    LGT SNOW  33  31  93 SE6       30.05R VSB 3/4
EAGLE RIVER    SNOW      31  31  99 SE7       30.05S VSB 1/2
LAND O LAKES   LGT SNOW  31  30  96 SE7       30.07R VSB 3/4
RHINELANDER    SNOW      31  31 100 E9        30.05R VSB 1/2
PHILLIPS       LGT SNOW  32  31  96 CALM      30.04R
ANTIGO         SNOW      31  31  98 SE12      30.06R VSB 1/2
TOMAHAWK       LGT RAIN  32  31  97 CALM      30.04R
MERRILL        LGT SNOW  33  32  99 CALM      30.05R
$$

WIZ013-073-171400-
NORTHEAST WISCONSIN

CITY           SKY/WX    TMP DP  RH WIND       PRES   REMARKS
IRON MOUNTAIN  LGT SNOW  30  28  93 E9        30.12S FOG
MARINETTE      CLOUDY    34  30  86 SE12      30.15S
OCONTO         CLOUDY    34  31  90 SE9       30.13R
$$

WIZ017-030-035>037-045-171400-
CENTRAL WISCONSIN

CITY           SKY/WX    TMP DP  RH WIND       PRES   REMARKS
MEDFORD        LGT SNOW  32  32  99 E5        30.03R
WAUSAU         LGT SNOW  33  32  96 E8        30.03R VSB 1
MOSINEE        LGT SNOW  32  32 100 E8        30.04R VSB 1
MARSHFIELD     PTSUNNY   34  32  92 E7        30.02R FOG
WISC RAPIDS    CLOUDY    38  32  79 NE7       30.03R
STEVENS POINT  LGT RAIN  32  31  96 E6        30.04R
WAUPACA        CLOUDY    39  30  70 E5        30.05R
SHAWANO        LGT SNOW  35  32  90 E5        30.10R
CLINTONVILLE   CLOUDY    34  32  93 E7        30.07R
$$

WIZ038-039-048-051-171400-
FOX VALLEY

CITY           SKY/WX    TMP DP  RH WIND       PRES   REMARKS
NWS GREEN BAY  CLOUDY    37  30  75 SE16      30.09S
APPLETON       CLOUDY    37  28  70 SE14G22   30.05S
OSHKOSH        CLOUDY    39  29  67 SE14      30.04R
FOND DU LAC    CLOUDY    39  30  70 SE14      30.05R
$$

WIZ022-050-052-171400-
EAST CENTRAL WISCONSIN

CITY           SKY/WX    TMP DP  RH WIND       PRES   REMARKS
STURGEON BAY   CLOUDY    34  30  86 SE12      30.15R
MANITOWOC      CLOUDY    37  30  75 SE16G23   30.12R
SHEBOYGAN      CLOUDY    37  29  72 S13G23    30.11R
$$

LMZ563-521-522-541>543-171400-
LAKESHORE

STATION/POSITION TIME  TEMP    WIND        PRES    VSBY  WAVE
                       AIR SEA DIR/SP/G                  HT/PER
                 (UTC) (F)     (DEG/KT/KT) (MB)    (MI)  (FT/S)
SHEBOYGAN LKSHOR 1300   38     150/ 28/ 32 1019.8R
TWO RIVERS CG    1200   37                   N/A       6
NORTHPORT PIER   1300   35     130/ 15/ 18 1022.4S
SISTER BAY LKSHO 1300   32     150/ 14/ 20   N/A
MENOMINEE LKSHOR 1300   33     130/  9/ 13 1021.9R
$$



USA.gov is the U.S. government's official web portal to all federal, state and local government web resources and services.